Regional Weather Roundup
Issued by NWS Mt. Holly, NJ

Home | Current Version | Previous Version | Text Only | Print | Product List | Glossary On
Versions: 1 2 3 4 5 6 7 8 9 10 11 12 13 14 15 16 17 18 19 20 21 22 23 24 25 26 27 28 29 30 31 32 33 34 35 36 37 38 39 40 41 42 43 44 45 46 47 48 49 50
000
ASUS41 KPHI 262010
RWRPHI

REGIONAL WEATHER ROUNDUP
NATIONAL WEATHER SERVICE MOUNT HOLLY NJ
400 PM EDT SAT JUL 26 2014

NOTE:  "FAIR" INDICATES FEW OR NO CLOUDS BELOW 12,000 FEET WITH NO
SIGNIFICANT WEATHER AND/OR OBSTRUCTIONS TO VISIBILITY.

 * = STATION DOES NOT REPORT PRECIPITATION (E.G. RAIN, SNOW, ETC.)
        OR FOG.

NJZ015>026-262100-
SOUTHERN NEW JERSEY

CITY           SKY/WX    TMP DP  RH WIND       PRES   REMARKS
POMONA         PTSUNNY   79  66  64 S10       29.96F
RIO GRANDE*    CLOUDY    73  66  78 S10       29.97F
MILLVILLE      PTSUNNY   79  68  69 VRB6G17   29.95F
WRIGHTSTOWN    MOSUNNY   76  68  77 S13G20    29.93F
MOUNT HOLLY    MOSUNNY   78  68  71 VRB6      29.94F
TRENTON        MOSUNNY   77  65  66 S14       29.94F

$$
NJZ001>014-262100-
NORTHERN NEW JERSEY

CITY           SKY/WX    TMP DP  RH WIND       PRES   REMARKS
SUSSEX         MOSUNNY   80  61  52 CALM      29.94F
ANDOVER*         N/A     79  60  52 N5        29.94F
MORRISTOWN     CLOUDY    81  64  57 S6        29.93F
NEWARK         PTSUNNY   80  65  59 S12       29.92F
TETERBORO      PTSUNNY   82  61  48 S9        29.91F
CALDWELL       CLOUDY    81  63  54 VRB6      29.93F
SOMERVILLE     PTSUNNY   79  67  66 SE5       29.91F
ALLAIRE*       CLOUDY    77  64  65 SW13      29.95S
TOMS RIVER*    CLOUDY    73  68  83 S6        29.97S

$$
PAZ043-044-047-054-055-060>062-066>071-262100-
EASTERN PENNSYLVANIA

CITY           SKY/WX    TMP DP  RH WIND       PRES   REMARKS
PHILADELPHIA   PTSUNNY   77  68  73 CALM      29.94F
NORTH PHILA    MOSUNNY   78  66  66 VRB6      29.95F
BLUE BELL      MOSUNNY   79  68  69 SE6       29.93F
DOYLESTOWN     PTSUNNY   78  65  63 S9        29.93F
QUAKERTOWN*    PTSUNNY   81  64  57 W5        29.95S
POTTSTOWN      MOSUNNY   79  63  57 S5        29.95F
LANCASTER      SUNNY     81  57  43 NW5       29.94F
COATESVILLE    MOSUNNY   81  59  47 CALM      29.96F
READING        SUNNY     83  56  39 SW7       29.92F
ALLENTOWN      MOSUNNY   83  56  39 W8        29.93F
MOUNT POCONO   SUNNY     74  54  49 W13       29.99F
HAZLETON       SUNNY     77  59  53 SW3       30.00F
WILKES BARRE   PTSUNNY   78  52  40 VRB6      29.94F

$$
DEZALL-MDZ008-012-015-019-020-262100-
DELAWARE AND EASTERN MARYLAND

CITY           SKY/WX    TMP DP  RH WIND       PRES   REMARKS
WILMINGTON     PTSUNNY   80  69  69 SE10      29.94F
DOVER          MOSUNNY   81  72  75 S13       29.93F
GEORGETOWN     MOSUNNY   74  70  87 S10       29.97F
EASTON         MOSUNNY   84  68  58 CALM      29.98F
PATUXENT       PTSUNNY   77  71  82 E12G18    29.94F
OCEAN CITY     CLOUDY    76  69  79 SW6       29.98R
WALLOPS ISLAND LGT RAIN  79  69  71 S12       29.98S
CAMBRIDGE      MOSUNNY   81  70  69 S6        29.95F

$$
PAZ001-021-NYZ056-072-MDZ011-DCZ001-262100-
OTHER NEARBY LOCATIONS

CITY           SKY/WX    TMP DP  RH WIND       PRES   REMARKS
HARRISBURG     MOSUNNY   85  54  34 W7        29.91F
STATE COLLEGE  MOSUNNY   79  59  50 SW6       29.93F
WILLIAMSPORT   CLOUDY    81  55  40 CALM      29.91F
BINGHAMTON     CLOUDY    75  55  49 W6        29.95F
NEW YORK CITY  PTSUNNY   78  62  57 SW5       29.96F
BALTIMORE      MOSUNNY   87  57  35 SW7       29.92F
WASHINGTON DC  MOSUNNY   88  64  44 S8        29.92F

$$


USA.gov is the U.S. government's official web portal to all federal, state and local government web resources and services.